Hauptseite
METAR-TAF:

METAR-TAF

Flughäfen :

Militärflugplatz Dübendorf

Dübendorf, Schweiz

Breite: 47-23-55N, Länge: 8-38-53E, Höhe: 448 m

Beobachtung

Neuester Wetterbericht von vor 40 Minuten, um 22:50 UTC
Wind 3 kt aus Ost/Südost
Temperatur 20°C
Luftfeuchtigkeit 73%
Luftdruck 1019 hPa
Sichtweite 10 km oder mehr

METAR: LSMD 212250Z AUTO 12003KT 9999NDV NCD 20/15 Q1019 RMK

Zeit: 01:30 (23:30 UTC)


TAF: fehlend

Wetterbeobachtungen und Prognosen von mehr als 4000 Flughäfen (METAR und TAF Bericht).

Die verfügbaren Stationen werden durch gelbe und rote Markierungen auf der Karte dargestellt.

Führen Sie die Maus auf sie, um den Namen der Station zu sehen.

Darauf klicken, um die Beobachtung von Wetterbeobachtungen und Prognosen zu sehen.

Um die Karte zu ändern : klicken Sie auf den grünen Tasten mit einem schwarzen Kreuz Zum Vergrößern, auf den grünen Button mit einem Gedankenstrich zu verkleinern, oder auf die grünen Pfeile für benachbarte Karten.


METAR-TAF: